| time (UTC) | temp F | wind direction | speed MPH | gust MPH | rain 1hr in | rain 24hr in | rain mn in | humidity % | barometer mb |
| 20260901071804 | 66 | 157 | 9.0 | 19.0 | 0.00 | 0.01 | 0.01 | 52 | 1013.6 |
| 20260901070924 | 66 | 157 | 7.0 | 18.0 | 0.00 | 0.01 | 0.01 | 52 | 1013.5 |
| 20260901070004 | 66 | 157 | 7.0 | 19.0 | 0.00 | 0.01 | 0.01 | 52 | 1013.5 |
| 20260901065404 | 66 | 157 | 8.0 | 19.0 | 0.00 | 0.01 | 0.01 | 51 | 1013.5 |
| 20260901064503 | 66 | 157 | 8.0 | 19.0 | 0.00 | 0.01 | 0.01 | 51 | 1013.5 |
| 20260901063604 | 66 | 157 | 6.0 | 17.0 | 0.00 | 0.01 | 0.01 | 51 | 1013.3 |
| 20260901062725 | 66 | 157 | 6.0 | 16.0 | 0.00 | 0.01 | 0.01 | 51 | 1013.3 |
| 20260901061804 | 67 | 157 | 7.0 | 18.0 | 0.00 | 0.01 | 0.01 | 51 | 1013.2 |
| 20260901060925 | 67 | 157 | 8.0 | 19.0 | 0.00 | 0.01 | 0.01 | 51 | 1013.1 |
| 20260901060025 | 67 | 157 | 10.0 | 19.0 | 0.00 | 0.01 | 0.01 | 50 | 1013.0 |
| 20260901055404 | 67 | 157 | 10.0 | 21.0 | 0.00 | 0.01 | 0.01 | 50 | 1012.9 |
| 20260901054504 | 67 | 157 | 11.0 | 21.0 | 0.00 | 0.01 | 0.01 | 50 | 1012.9 |
| 20260901053604 | 68 | 157 | 11.0 | 28.0 | 0.00 | 0.01 | 0.01 | 49 | 1013.0 |
| 20260901052703 | 68 | 157 | 10.0 | 28.0 | 0.00 | 0.01 | 0.01 | 49 | 1013.0 |
| 20260901051803 | 68 | 157 | 9.0 | 25.0 | 0.00 | 0.01 | 0.01 | 49 | 1013.0 |
| 20260901050903 | 69 | 157 | 10.0 | 17.0 | 0.00 | 0.01 | 0.01 | 50 | 1013.1 |
| 20260901050003 | 69 | 157 | 11.0 | 20.0 | 0.00 | 0.01 | 0.01 | 49 | 1013.2 |
| 20260901045403 | 69 | 157 | 12.0 | 22.0 | 0.00 | 0.01 | 0.01 | 49 | 1013.3 |
| 20260901044506 | 68 | 157 | 14.0 | 24.0 | 0.00 | 0.01 | 0.01 | 49 | 1013.5 |
| 20260901043604 | 69 | 157 | 12.0 | 27.0 | 0.00 | 0.01 | 0.01 | 48 | 1013.7 |
| 20260901042703 | 69 | 157 | 10.0 | 21.0 | 0.00 | 0.01 | 0.01 | 48 | 1013.6 |
| 20260901041804 | 69 | 157 | 10.0 | 26.0 | 0.00 | 0.01 | 0.01 | 47 | 1014.1 |
| 20260901040903 | 69 | 157 | 10.0 | 25.0 | 0.00 | 0.01 | 0.01 | 47 | 1014.0 |
| 20260901040003 | 70 | 157 | 9.0 | 24.0 | 0.00 | 0.01 | 0.01 | 47 | 1014.3 |
| 20260901035404 | 70 | 157 | 9.0 | 22.0 | 0.00 | 0.01 | 0.01 | 47 | 1014.4 |
| 20260901034525 | 70 | 157 | 9.0 | 20.0 | 0.00 | 0.01 | 0.01 | 47 | 1014.6 |
| 20260901033603 | 70 | 157 | 10.0 | 24.0 | 0.00 | 0.01 | 0.01 | 47 | 1014.7 |
| 20260901032703 | 70 | 157 | 10.0 | 22.0 | 0.00 | 0.01 | 0.01 | 46 | 1015.0 |
| 20260901031825 | 70 | 157 | 11.0 | 22.0 | 0.00 | 0.01 | 0.01 | 45 | 1015.1 |
| 20260901030903 | 70 | 157 | 11.0 | 24.0 | 0.00 | 0.01 | 0.01 | 45 | 1015.1 |
| 20260901030004 | 70 | 157 | 12.0 | 27.0 | 0.00 | 0.01 | 0.01 | 45 | 1015.4 |
| 20260901025425 | 70 | 157 | 10.0 | 27.0 | 0.00 | 0.01 | 0.01 | 43 | 1015.5 |
| 20260901024503 | 70 | 157 | 9.0 | 19.0 | 0.00 | 0.01 | 0.01 | 45 | 1015.8 |
| 20260901023604 | 70 | 157 | 11.0 | 22.0 | 0.00 | 0.01 | 0.01 | 46 | 1016.1 |
| 20260901022724 | 69 | 157 | 11.0 | 21.0 | 0.00 | 0.01 | 0.01 | 47 | 1016.4 |
| 20260901021825 | 70 | 157 | 10.0 | 23.0 | 0.00 | 0.01 | 0.01 | 46 | 1016.5 |
| 20260901020903 | 69 | 157 | 11.0 | 24.0 | 0.00 | 0.01 | 0.01 | 47 | 1016.8 |
| 20260901020003 | 69 | 157 | 9.0 | 28.0 | 0.00 | 0.01 | 0.01 | 48 | 1016.8 |
| 20260901015403 | 69 | 157 | 9.0 | 22.0 | 0.00 | 0.01 | 0.01 | 51 | 1016.9 |
| 20260901014504 | 68 | 157 | 9.0 | 23.0 | 0.00 | 0.01 | 0.01 | 51 | 1017.0 |
| 20260901013604 | 67 | 157 | 12.0 | 23.0 | 0.00 | 0.01 | 0.01 | 56 | 1017.0 |
| 20260901012703 | 67 | 157 | 11.0 | 25.0 | 0.00 | 0.01 | 0.01 | 54 | 1017.1 |
| 20260901011824 | 67 | 157 | 11.0 | 25.0 | 0.00 | 0.01 | 0.01 | 56 | 1017.2 |
| 20260901010904 | 66 | 157 | 12.0 | 28.0 | 0.00 | 0.01 | 0.01 | 56 | 1017.4 |
| 20260901010004 | 66 | 157 | 13.0 | 28.0 | 0.00 | 0.01 | 0.01 | 56 | 1017.6 |
| 20260901005404 | 66 | 157 | 12.0 | 31.0 | 0.00 | 0.01 | 0.01 | 57 | 1017.6 |
| 20260901004504 | 65 | 157 | 13.0 | 25.0 | 0.00 | 0.01 | 0.01 | 56 | 1017.7 |
| 20260901003604 | 65 | 157 | 15.0 | 29.0 | 0.00 | 0.01 | 0.01 | 57 | 1017.8 |
| 20260901002704 | 64 | 157 | 15.0 | 32.0 | 0.00 | 0.01 | 0.01 | 57 | 1017.8 |
| 20260901001803 | 65 | 157 | 14.0 | 29.0 | 0.00 | 0.01 | 0.01 | 57 | 1017.9 |
| 20260901000904 | 64 | 157 | 14.0 | 30.0 | 0.00 | 0.01 | 0.01 | 56 | 1018.0 |
| 20260901000004 | 64 | 157 | 15.0 | 27.0 | 0.00 | 0.01 | 0.01 | 58 | 1018.0 |
| 20260831235403 | 64 | 157 | 15.0 | 36.0 | 0.00 | 0.01 | 0.01 | 59 | 1018.2 |
| 20260831234503 | 64 | 157 | 12.0 | 29.0 | 0.00 | 0.01 | 0.01 | 58 | 1018.6 |
| 20260831233603 | 64 | 157 | 11.0 | 24.0 | 0.00 | 0.01 | 0.01 | 60 | 1018.7 |
| 20260831232724 | 63 | 157 | 11.0 | 26.0 | 0.00 | 0.01 | 0.01 | 62 | 1019.1 |
| 20260831231803 | 63 | 157 | 8.0 | 23.0 | 0.00 | 0.01 | 0.01 | 63 | 1019.3 |
| 20260831230903 | 63 | 157 | 10.0 | 19.0 | 0.00 | 0.01 | 0.01 | 65 | 1019.7 |
| 20260831230003 | 62 | 157 | 10.0 | 21.0 | 0.00 | 0.01 | 0.01 | 65 | 1019.8 |
| 20260831225403 | 62 | 157 | 9.0 | 24.0 | 0.00 | 0.01 | 0.01 | 65 | 1019.9 |
| 20260831224503 | 62 | 157 | 8.0 | 17.0 | 0.00 | 0.01 | 0.01 | 66 | 1020.0 |
| 20260831223603 | 61 | 157 | 10.0 | 18.0 | 0.00 | 0.01 | 0.01 | 67 | 1020.1 |
| 20260831222724 | 61 | 157 | 10.0 | 27.0 | 0.00 | 0.01 | 0.01 | 68 | 1020.3 |
| 20260831221824 | 61 | 157 | 10.0 | 23.0 | 0.00 | 0.01 | 0.01 | 69 | 1020.1 |
| 20260831220924 | 60 | 157 | 10.0 | 21.0 | 0.00 | 0.01 | 0.01 | 69 | 1020.2 |
| 20260831220002 | 60 | 157 | 10.0 | 21.0 | 0.00 | 0.01 | 0.01 | 70 | 1020.2 |
| 20260831215423 | 60 | 157 | 11.0 | 17.0 | 0.00 | 0.01 | 0.01 | 71 | 1020.2 |
| 20260831214502 | 60 | 157 | 11.0 | 26.0 | 0.01 | 0.01 | 0.01 | 71 | 1020.4 |
| 20260831213602 | 59 | 157 | 10.0 | 20.0 | 0.01 | 0.01 | 0.01 | 71 | 1020.3 |
| 20260831212702 | 59 | 157 | 10.0 | 20.0 | 0.01 | 0.01 | 0.01 | 72 | 1020.1 |
| 20260831211802 | 58 | 157 | 9.0 | 21.0 | 0.01 | 0.01 | 0.01 | 73 | 1020.0 |
| 20260831210902 | 58 | 157 | 10.0 | 22.0 | 0.01 | 0.01 | 0.01 | 74 | 1020.0 |
| 20260831210002 | 58 | 157 | 11.0 | 22.0 | 0.01 | 0.01 | 0.01 | 74 | 1020.0 |
| 20260831205402 | 58 | 157 | 11.0 | 24.0 | 0.01 | 0.01 | 0.01 | 74 | 1020.0 |
| 20260831204502 | 58 | 157 | 10.0 | 20.0 | 0.00 | 0.00 | 0.00 | 75 | 1020.0 |
| 20260831203602 | 58 | 157 | 9.0 | 22.0 | 0.00 | 0.00 | 0.00 | 75 | 1020.3 |
| 20260831202702 | 57 | 157 | 9.0 | 19.0 | 0.00 | 0.00 | 0.00 | 76 | 1020.2 |
| 20260831201802 | 57 | 157 | 10.0 | 17.0 | 0.00 | 0.00 | 0.00 | 78 | 1020.3 |
| 20260831200902 | 57 | 157 | 10.0 | 17.0 | 0.00 | 0.00 | 0.00 | 79 | 1020.4 |
| 20260831200002 | 57 | 157 | 10.0 | 19.0 | 0.00 | 0.00 | 0.00 | 79 | 1020.3 |
| 20260831195402 | 57 | 157 | 9.0 | 19.0 | 0.00 | 0.00 | 0.00 | 80 | 1020.3 |
| 20260831194502 | 57 | 157 | 9.0 | 17.0 | 0.00 | 0.00 | 0.00 | 81 | 1020.3 |
| 20260831193623 | 56 | 157 | 8.0 | 18.0 | 0.00 | 0.00 | 0.00 | 83 | 1020.2 |
| 20260831192723 | 56 | 157 | 6.0 | 18.0 | 0.00 | 0.00 | 0.00 | 84 | 1020.4 |
| 20260831191802 | 56 | 157 | 4.0 | 13.0 | 0.00 | 0.00 | 0.00 | 84 | 1020.6 |
| 20260831190902 | 56 | 157 | 5.0 | 11.0 | 0.00 | 0.00 | 0.00 | 84 | 1020.9 |
| 20260831190002 | 56 | 157 | 6.0 | 13.0 | 0.00 | 0.00 | 0.00 | 83 | 1020.9 |
| 20260831185423 | 56 | 157 | 7.0 | 15.0 | 0.00 | 0.00 | 0.00 | 83 | 1020.9 |
| 20260831184502 | 56 | 157 | 7.0 | 15.0 | 0.00 | 0.00 | 0.00 | 83 | 1021.2 |
| 20260831183602 | 57 | 157 | 7.0 | 17.0 | 0.00 | 0.00 | 0.00 | 83 | 1021.1 |
| 20260831182702 | 57 | 157 | 7.0 | 16.0 | 0.00 | 0.00 | 0.00 | 83 | 1021.1 |
| 20260831181802 | 57 | 157 | 7.0 | 15.0 | 0.00 | 0.00 | 0.00 | 83 | 1021.2 |
| 20260831180902 | 57 | 157 | 6.0 | 13.0 | 0.00 | 0.00 | 0.00 | 83 | 1021.3 |
| 20260831180023 | 57 | 157 | 6.0 | 15.0 | 0.00 | 0.00 | 0.00 | 84 | 1021.4 |
| 20260831175402 | 57 | 157 | 6.0 | 13.0 | 0.00 | 0.00 | 0.00 | 83 | 1021.5 |
| 20260831174502 | 57 | 157 | 7.0 | 15.0 | 0.00 | 0.00 | 0.00 | 83 | 1021.6 |
| 20260831173602 | 57 | 157 | 8.0 | 17.0 | 0.00 | 0.00 | 0.00 | 83 | 1021.6 |
| 20260831172702 | 58 | 157 | 9.0 | 17.0 | 0.00 | 0.00 | 0.00 | 82 | 1021.8 |
| 20260831171802 | 58 | 157 | 9.0 | 17.0 | 0.00 | 0.00 | 0.00 | 82 | 1021.9 |
| 20260831170923 | 57 | 157 | 9.0 | 18.0 | 0.00 | 0.00 | 0.00 | 83 | 1021.9 |
| 20260831170002 | 57 | 157 | 10.0 | 20.0 | 0.00 | 0.00 | 0.00 | 83 | 1022.0 |
| 20260831165402 | 57 | 157 | 8.0 | 20.0 | 0.00 | 0.00 | 0.00 | 84 | 1022.0 |
| 20260831164502 | 56 | 157 | 7.0 | 14.0 | 0.00 | 0.00 | 0.00 | 84 | 1022.2 |
| 20260831163602 | 56 | 157 | 8.0 | 15.0 | 0.00 | 0.00 | 0.00 | 84 | 1022.4 |
| 20260831162723 | 56 | 157 | 8.0 | 15.0 | 0.00 | 0.00 | 0.00 | 84 | 1022.5 |
| 20260831161802 | 56 | 157 | 9.0 | 17.0 | 0.00 | 0.00 | 0.00 | 84 | 1022.6 |
| 20260831160902 | 57 | 157 | 9.0 | 21.0 | 0.00 | 0.00 | 0.00 | 85 | 1022.8 |
| 20260831160002 | 57 | 157 | 7.0 | 18.0 | 0.00 | 0.00 | 0.00 | 85 | 1023.0 |
| 20260831155402 | 56 | 157 | 6.0 | 15.0 | 0.00 | 0.00 | 0.00 | 85 | 1023.1 |
| 20260831154502 | 56 | 157 | 7.0 | 17.0 | 0.00 | 0.00 | 0.00 | 85 | 1023.2 |
| 20260831153602 | 56 | 157 | 6.0 | 13.0 | 0.00 | 0.00 | 0.00 | 84 | 1023.4 |
| 20260831152702 | 56 | 157 | 6.0 | 13.0 | 0.00 | 0.00 | 0.00 | 84 | 1023.4 |
| 20260831151802 | 56 | 157 | 6.0 | 14.0 | 0.00 | 0.00 | 0.00 | 84 | 1023.5 |
| 20260831150902 | 56 | 157 | 5.0 | 12.0 | 0.00 | 0.00 | 0.00 | 83 | 1023.6 |
| 20260831150002 | 56 | 157 | 5.0 | 11.0 | 0.00 | 0.00 | 0.00 | 83 | 1023.7 |
| 20260831145402 | 56 | 157 | 5.0 | 9.0 | 0.00 | 0.00 | 0.00 | 82 | 1023.7 |
| 20260831144502 | 56 | 157 | 4.0 | 11.0 | 0.00 | 0.00 | 0.00 | 82 | 1024.0 |
| 20260831143623 | 56 | 157 | 4.0 | 10.0 | 0.00 | 0.00 | 0.00 | 82 | 1024.2 |
| 20260831142702 | 55 | 157 | 3.0 | 10.0 | 0.00 | 0.00 | 0.00 | 82 | 1024.3 |
| 20260831141802 | 55 | 157 | 3.0 | 9.0 | 0.00 | 0.00 | 0.00 | 83 | 1024.5 |
| 20260831140902 | 54 | 157 | 2.0 | 6.0 | 0.00 | 0.00 | 0.00 | 83 | 1024.7 |
| 20260831140024 | 54 | 157 | 2.0 | 5.0 | 0.00 | 0.00 | 0.00 | 83 | 1024.8 |
| 20260831135402 | 54 | 157 | 2.0 | 4.0 | 0.00 | 0.00 | 0.00 | 83 | 1024.9 |
| 20260831134502 | 54 | 157 | 2.0 | 6.0 | 0.00 | 0.00 | 0.00 | 84 | 1025.0 |
| 20260831133602 | 54 | 157 | 2.0 | 6.0 | 0.00 | 0.00 | 0.00 | 84 | 1025.1 |
| 20260831132702 | 53 | 157 | 2.0 | 5.0 | 0.00 | 0.00 | 0.00 | 84 | 1025.3 |
| 20260831131802 | 53 | 157 | 2.0 | 5.0 | 0.00 | 0.00 | 0.00 | 85 | 1025.5 |
| 20260831130902 | 53 | 157 | 1.0 | 4.0 | 0.00 | 0.00 | 0.00 | 85 | 1025.6 |
| 20260831130002 | 53 | 157 | 2.0 | 3.0 | 0.00 | 0.00 | 0.00 | 85 | 1025.6 |
| 20260831125402 | 53 | 157 | 1.0 | 3.0 | 0.00 | 0.00 | 0.00 | 85 | 1025.7 |
| 20260831124502 | 53 | 157 | 1.0 | 3.0 | 0.00 | 0.00 | 0.00 | 86 | 1025.8 |
| 20260831123602 | 53 | 157 | 1.0 | 3.0 | 0.00 | 0.00 | 0.00 | 86 | 1025.9 |
| 20260831122702 | 53 | 157 | 1.0 | 3.0 | 0.00 | 0.00 | 0.00 | 87 | 1026.0 |
| 20260831121802 | 53 | 157 | 1.0 | 3.0 | 0.00 | 0.00 | 0.00 | 87 | 1025.9 |
| 20260831120902 | 53 | 157 | 1.0 | 2.0 | 0.00 | 0.00 | 0.00 | 87 | 1026.0 |
| 20260831120002 | 54 | 157 | 0.0 | 3.0 | 0.00 | 0.00 | 0.00 | 87 | 1026.0 |
| 20260831115402 | 54 | 157 | 0.0 | 3.0 | 0.00 | 0.00 | 0.00 | 87 | 1026.0 |
| 20260831114502 | 54 | 157 | 1.0 | 3.0 | 0.00 | 0.00 | 0.00 | 87 | 1026.0 |
| 20260831113602 | 54 | 157 | 1.0 | 3.0 | 0.00 | 0.00 | 0.00 | 87 | 1026.2 |
| 20260831112702 | 54 | 157 | 0.0 | 3.0 | 0.00 | 0.00 | 0.00 | 87 | 1026.2 |
| 20260831111802 | 54 | 0 | 0.0 | 3.0 | 0.00 | 0.00 | 0.00 | 87 | 1026.2 |
| 20260831110902 | 54 | 0 | 0.0 | 2.0 | 0.00 | 0.00 | 0.00 | 87 | 1026.3 |
| 20260831110002 | 54 | 0 | 0.0 | 0.0 | 0.00 | 0.00 | 0.00 | 88 | 1026.4 |
| 20260831105402 | 54 | 0 | 0.0 | 0.0 | 0.00 | 0.00 | 0.00 | 88 | 1026.5 |
| 20260831104502 | 54 | 0 | 0.0 | 1.0 | 0.00 | 0.00 | 0.00 | 87 | 1026.6 |
| 20260831103602 | 54 | 0 | 0.0 | 1.0 | 0.00 | 0.00 | 0.00 | 88 | 1026.5 |
| 20260831102702 | 54 | 0 | 0.0 | 0.0 | 0.00 | 0.00 | 0.00 | 88 | 1026.5 |
| 20260831101802 | 54 | 0 | 0.0 | 0.0 | 0.00 | 0.00 | 0.00 | 87 | 1026.6 |
| 20260831095424 | 55 | 0 | 0.0 | 0.0 | 0.00 | 0.00 | 0.00 | 87 | 1026.7 |
| 20260831094503 | 55 | 0 | 0.0 | 0.0 | 0.00 | 0.00 | 0.00 | 86 | 1026.8 |
| 20260831093603 | 55 | 0 | 0.0 | 0.0 | 0.00 | 0.00 | 0.00 | 86 | 1026.9 |
| 20260831092703 | 55 | 0 | 0.0 | 0.0 | 0.00 | 0.00 | 0.00 | 85 | 1026.9 |
| 20260831091803 | 55 | 0 | 0.0 | 0.0 | 0.00 | 0.00 | 0.00 | 84 | 1027.0 |
| 20260831090924 | 56 | 0 | 0.0 | 0.0 | 0.00 | 0.00 | 0.00 | 83 | 1027.2 |
| 20260831090024 | 56 | 0 | 0.0 | 1.0 | 0.00 | 0.00 | 0.00 | 82 | 1027.2 |
| 20260831085403 | 56 | 0 | 0.0 | 2.0 | 0.00 | 0.00 | 0.00 | 82 | 1027.2 |
| 20260831084503 | 57 | 0 | 0.0 | 0.0 | 0.00 | 0.00 | 0.00 | 81 | 1027.2 |
| 20260831083603 | 57 | 0 | 0.0 | 2.0 | 0.00 | 0.00 | 0.00 | 81 | 1027.3 |
| 20260831082703 | 58 | 0 | 0.0 | 0.0 | 0.00 | 0.00 | 0.00 | 79 | 1027.3 |
| 20260831081803 | 58 | 157 | 0.0 | 3.0 | 0.00 | 0.00 | 0.00 | 78 | 1027.2 |
| 20260831080903 | 59 | 157 | 1.0 | 4.0 | 0.00 | 0.00 | 0.00 | 77 | 1027.2 |
| 20260831080024 | 60 | 157 | 1.0 | 2.0 | 0.00 | 0.00 | 0.00 | 76 | 1027.2 |
| 20260831075424 | 60 | 157 | 1.0 | 3.0 | 0.00 | 0.00 | 0.00 | 75 | 1027.3 |
| 20260831074503 | 61 | 157 | 0.0 | 2.0 | 0.00 | 0.00 | 0.00 | 74 | 1027.3 |
| 20260831073603 | 62 | 0 | 0.0 | 2.0 | 0.00 | 0.00 | 0.00 | 73 | 1027.3 |
| 20260831072703 | 62 | 0 | 0.0 | 2.0 | 0.00 | 0.00 | 0.00 | 72 | 1027.2 |